Station Historical Data
Daily Summary for October 2, 2017 Units:  English    Metric   Both
Next Day »
Daily Weekly Monthly Yearly Custom
  High: Low: Average:
Temperature: 65.8 °F 51.1 °F 57.1 °F
Dew Point: 35.4 °F 25.9 °F 29.7 °F
Humidity: 49% 24% 36%
Wind Speed: 15.0mph 0.0mph 1.6mph
Wind Gust: 22.0mph - -
Wind- - SSE
Pressure: 29.85 in 29.78 in -
Precipitation: 0.00 in    
Historical Graphs
 
 
Tabular Data for October 2, 2017
Time Temperature Dew Point Pressure Wind Wind Speed Wind Gust Humidity Rainfall Rate (Hourly) solar Conditions
00:01 57.7 °F 29.5 °F 29.83 in East 3.0 mph 8.0 mph 34% 0.00 in 0.00 W/m2
00:06 57.5 °F 30.1 °F 29.83 in ENE 15.0 mph 15.0 mph 35% 0.00 in 0.00 W/m2
00:11 57.2 °F 29.1 °F 29.83 in Calm   15.0 mph 34% 0.00 in 0.00 W/m2
00:16 56.9 °F 28.1 °F 29.83 in ENE 6.0 mph 11.0 mph 33% 0.00 in 0.00 W/m2
00:21 56.5 °F 29.2 °F 29.83 in East 3.0 mph 17.0 mph 35% 0.00 in 0.00 W/m2
00:26 56.2 °F 28.2 °F 29.83 in Calm   12.0 mph 34% 0.00 in 0.00 W/m2
00:31 55.9 °F 27.2 °F 29.83 in Calm     33% 0.00 in 0.00 W/m2
00:36 55.7 °F 27.1 °F 29.83 in Calm     33% 0.00 in 0.00 W/m2
00:41 55.5 °F 26.9 °F 29.84 in Calm   6.0 mph 33% 0.00 in 0.00 W/m2
00:46 55.4 °F 27.5 °F 29.84 in NE 5.0 mph 5.0 mph 34% 0.00 in 0.00 W/m2
00:51 55.3 °F 27.4 °F 29.83 in ENE 3.0 mph 4.0 mph 34% 0.00 in 0.00 W/m2
00:56 55.1 °F 27.3 °F 29.83 in ENE 3.0 mph 4.0 mph 34% 0.00 in 0.00 W/m2
01:01 54.9 °F 26.4 °F 29.83 in Calm     33% 0.00 in 0.00 W/m2
01:06 54.8 °F 26.3 °F 29.83 in ENE 1.0 mph 2.0 mph 33% 0.00 in 0.00 W/m2
01:11 54.6 °F 26.8 °F 29.83 in Calm     34% 0.00 in 0.00 W/m2
01:16 54.4 °F 25.9 °F 29.84 in Calm     33% 0.00 in 0.00 W/m2
01:21 54.3 °F 27.2 °F 29.83 in Calm     35% 0.00 in 0.00 W/m2
01:26 54.2 °F 26.5 °F 29.84 in ENE 2.0 mph 3.0 mph 34% 0.00 in 0.00 W/m2
01:31 54.1 °F 26.4 °F 29.83 in Calm     34% 0.00 in 0.00 W/m2
01:36 54.0 °F 26.3 °F 29.84 in ENE 3.0 mph 4.0 mph 34% 0.00 in 0.00 W/m2
01:41 53.9 °F 26.9 °F 29.84 in NE 5.0 mph 5.0 mph 35% 0.00 in 0.00 W/m2
01:46 53.8 °F 26.8 °F 29.84 in Calm   7.0 mph 35% 0.00 in 0.00 W/m2
01:51 53.7 °F 26.7 °F 29.84 in ENE 1.0 mph 7.0 mph 35% 0.00 in 0.00 W/m2
01:56 53.6 °F 26.6 °F 29.84 in Calm   7.0 mph 35% 0.00 in 0.00 W/m2
02:01 53.5 °F 26.5 °F 29.83 in ENE 11.0 mph 11.0 mph 35% 0.00 in 0.00 W/m2
02:06 53.4 °F 27.1 °F 29.84 in Calm   2.0 mph 36% 0.00 in 0.00 W/m2
02:11 53.4 °F 27.1 °F 29.84 in Calm     36% 0.00 in 0.00 W/m2
02:16 53.3 °F 27.7 °F 29.84 in ENE 8.0 mph 11.0 mph 37% 0.00 in 0.00 W/m2
02:21 53.2 °F 27.0 °F 29.84 in NE 10.0 mph 11.0 mph 36% 0.00 in 0.00 W/m2
02:26 53.2 °F 27.0 °F 29.84 in Calm   3.0 mph 36% 0.00 in 0.00 W/m2
02:31 53.2 °F 27.6 °F 29.84 in Calm   3.0 mph 37% 0.00 in 0.00 W/m2
02:36 53.2 °F 27.0 °F 29.84 in ENE 1.0 mph 4.0 mph 36% 0.00 in 0.00 W/m2
02:41 53.2 °F 27.6 °F 29.84 in ENE 1.0 mph 4.0 mph 37% 0.00 in 0.00 W/m2
02:46 53.2 °F 27.6 °F 29.83 in East 3.0 mph 14.0 mph 37% 0.00 in 0.00 W/m2
02:51 53.2 °F 28.3 °F 29.83 in ENE 4.0 mph 12.0 mph 38% 0.00 in 0.00 W/m2
02:56 53.4 °F 28.5 °F 29.83 in Calm   9.0 mph 38% 0.00 in 0.00 W/m2
03:01 53.8 °F 28.2 °F 29.83 in East 3.0 mph 7.0 mph 37% 0.00 in 0.00 W/m2
03:06 54.2 °F 28.5 °F 29.82 in East 5.0 mph 15.0 mph 37% 0.00 in 0.00 W/m2
03:11 54.7 °F 28.3 °F 29.83 in Calm   12.0 mph 36% 0.00 in 0.00 W/m2
03:16 55.1 °F 28.6 °F 29.82 in East 13.0 mph 13.0 mph 36% 0.00 in 0.00 W/m2
03:21 55.3 °F 28.8 °F 29.82 in East 4.0 mph 22.0 mph 36% 0.00 in 0.00 W/m2
03:26 55.4 °F 28.9 °F 29.82 in East 6.0 mph 11.0 mph 36% 0.00 in 0.00 W/m2
03:31 55.5 °F 29.0 °F 29.82 in Calm   7.0 mph 36% 0.00 in 0.00 W/m2
03:36 55.5 °F 28.3 °F 29.82 in East 5.0 mph 9.0 mph 35% 0.00 in 0.00 W/m2
03:41 55.6 °F 28.4 °F 29.82 in East 5.0 mph 7.0 mph 35% 0.00 in 0.00 W/m2
03:46 55.6 °F 28.4 °F 29.82 in Calm   8.0 mph 35% 0.00 in 0.00 W/m2
03:51 55.6 °F 29.1 °F 29.81 in Calm   8.0 mph 36% 0.00 in 0.00 W/m2
03:56 55.6 °F 29.1 °F 29.82 in East 6.0 mph 6.0 mph 36% 0.00 in 0.00 W/m2
04:01 55.6 °F 29.8 °F 29.82 in East 4.0 mph 7.0 mph 37% 0.00 in 0.00 W/m2
04:06 55.4 °F 29.6 °F 29.82 in Calm   1.0 mph 37% 0.00 in 0.00 W/m2
04:11 55.2 °F 30.1 °F 29.82 in Calm   6.0 mph 38% 0.00 in 0.00 W/m2
04:16 54.7 °F 29.6 °F 29.82 in Calm   1.0 mph 38% 0.00 in 0.00 W/m2
04:21 54.3 °F 29.9 °F 29.82 in Calm   5.0 mph 39% 0.00 in 0.00 W/m2
04:26 54.0 °F 29.6 °F 29.82 in ENE 5.0 mph 7.0 mph 39% 0.00 in 0.00 W/m2
04:31 53.7 °F 30.0 °F 29.82 in ENE 4.0 mph 5.0 mph 40% 0.00 in 0.00 W/m2
04:37 53.4 °F 29.7 °F 29.82 in East 9.0 mph 10.0 mph 40% 0.00 in 0.00 W/m2
04:42 53.2 °F 29.5 °F 29.82 in Calm   7.0 mph 40% 0.00 in 0.00 W/m2
04:47 53.0 °F 30.0 °F 29.82 in ENE 7.0 mph 7.0 mph 41% 0.00 in 0.00 W/m2
04:52 52.7 °F 29.7 °F 29.82 in NE 1.0 mph 8.0 mph 41% 0.00 in 0.00 W/m2
04:57 52.4 °F 29.4 °F 29.82 in Calm   5.0 mph 41% 0.00 in 0.00 W/m2
05:02 52.2 °F 29.2 °F 29.82 in East 2.0 mph 6.0 mph 41% 0.00 in 0.00 W/m2
05:07 52.0 °F 29.6 °F 29.82 in East 5.0 mph 8.0 mph 42% 0.00 in 0.00 W/m2
05:12 51.8 °F 29.5 °F 29.82 in ENE 4.0 mph 5.0 mph 42% 0.00 in 0.00 W/m2
05:17 51.6 °F 29.3 °F 29.81 in East 2.0 mph 7.0 mph 42% 0.00 in 0.00 W/m2
05:22 51.5 °F 29.8 °F 29.81 in ENE 7.0 mph 7.0 mph 43% 0.00 in 0.00 W/m2
05:27 51.4 °F 29.7 °F 29.81 in Calm   11.0 mph 43% 0.00 in 0.00 W/m2
05:32 51.4 °F 30.2 °F 29.82 in Calm   13.0 mph 44% 0.00 in 0.00 W/m2
05:37 51.3 °F 30.1 °F 29.82 in Calm   6.0 mph 44% 0.00 in 0.00 W/m2
05:42 51.3 °F 30.1 °F 29.81 in NE 10.0 mph 10.0 mph 44% 0.00 in 0.00 W/m2
05:47 51.2 °F 30.0 °F 29.81 in East 2.0 mph 7.0 mph 44% 0.00 in 0.00 W/m2
05:52 51.2 °F 30.0 °F 29.81 in East 2.0 mph 11.0 mph 44% 0.00 in 0.00 W/m2
05:57 51.1 °F 30.5 °F 29.81 in ENE 7.0 mph 14.0 mph 45% 0.00 in 0.00 W/m2
06:02 51.1 °F 30.5 °F 29.81 in ENE 4.0 mph 10.0 mph 45% 0.00 in 0.00 W/m2
06:07 51.1 °F 30.5 °F 29.81 in East 2.0 mph 8.0 mph 45% 0.00 in 0.00 W/m2
06:12 51.1 °F 30.5 °F 29.81 in ENE 1.0 mph 8.0 mph 45% 0.00 in 0.00 W/m2
06:17 51.2 °F 30.0 °F 29.81 in ENE 4.0 mph 12.0 mph 44% 0.00 in 0.00 W/m2
06:22 51.4 °F 30.8 °F 29.81 in East 5.0 mph 7.0 mph 45% 0.00 in 0.00 W/m2
06:27 51.7 °F 30.5 °F 29.81 in ENE 1.0 mph 15.0 mph 44% 0.00 in 0.00 W/m2
06:32 51.8 °F 30.0 °F 29.81 in East 2.0 mph 16.0 mph 43% 0.00 in 0.00 W/m2
06:37 51.9 °F 30.7 °F 29.81 in ESE 4.0 mph 11.0 mph 44% 0.00 in 0.00 W/m2
06:42 52.0 °F 30.2 °F 29.81 in East 1.0 mph 13.0 mph 43% 0.00 in 0.00 W/m2
06:47 52.2 °F 30.4 °F 29.81 in ENE 1.0 mph 18.0 mph 43% 0.00 in 0.00 W/m2
06:52 52.3 °F 30.5 °F 29.81 in Calm   9.0 mph 43% 0.00 in 0.00 W/m2
06:57 52.5 °F 30.1 °F 29.81 in Calm   7.0 mph 42% 0.00 in 5.00 W/m2
07:02 52.8 °F 30.4 °F 29.81 in East 3.0 mph 20.0 mph 42% 0.00 in 7.00 W/m2
07:07 52.9 °F 30.5 °F 29.81 in East 1.0 mph 11.0 mph 42% 0.00 in 9.00 W/m2
07:12 53.1 °F 30.0 °F 29.81 in Calm   5.0 mph 41% 0.00 in 12.00 W/m2
07:17 53.1 °F 31.2 °F 29.81 in Calm   10.0 mph 43% 0.00 in 14.00 W/m2
07:22 53.1 °F 31.2 °F 29.81 in Calm   8.0 mph 43% 0.00 in 18.00 W/m2
07:27 52.8 °F 30.9 °F 29.81 in ENE 5.0 mph 7.0 mph 43% 0.00 in 26.00 W/m2
07:32 52.6 °F 30.8 °F 29.81 in ENE 2.0 mph 11.0 mph 43% 0.00 in 40.00 W/m2
07:37 52.4 °F 30.6 °F 29.81 in Calm   8.0 mph 43% 0.00 in 49.00 W/m2
07:42 52.2 °F 31.0 °F 29.81 in Calm   12.0 mph 44% 0.00 in 65.00 W/m2
07:47 52.0 °F 30.8 °F 29.82 in Calm   11.0 mph 44% 0.00 in 83.00 W/m2
07:52 51.8 °F 30.6 °F 29.82 in East 1.0 mph 10.0 mph 44% 0.00 in 104.00 W/m2
07:57 51.7 °F 31.1 °F 29.83 in East 1.0 mph 3.0 mph 45% 0.00 in 121.00 W/m2
08:02 51.5 °F 30.9 °F 29.83 in Calm     45% 0.00 in 141.00 W/m2
08:07 51.4 °F 30.8 °F 29.83 in Calm   3.0 mph 45% 0.00 in 162.00 W/m2
08:12 51.2 °F 31.1 °F 29.83 in NNE 1.0 mph 3.0 mph 46% 0.00 in 183.00 W/m2
08:17 51.2 °F 31.1 °F 29.83 in Calm     46% 0.00 in 206.00 W/m2
08:22 51.2 °F 31.7 °F 29.84 in Calm   4.0 mph 47% 0.00 in 229.00 W/m2
08:27 51.2 °F 32.2 °F 29.84 in ENE 1.0 mph 4.0 mph 48% 0.00 in 251.00 W/m2
08:32 51.2 °F 32.2 °F 29.84 in Calm     48% 0.00 in 269.00 W/m2
08:38 51.3 °F 32.3 °F 29.84 in Calm     48% 0.00 in 288.00 W/m2
08:43 51.4 °F 32.9 °F 29.84 in Calm     49% 0.00 in 308.00 W/m2
08:48 51.6 °F 32.6 °F 29.84 in Calm   4.0 mph 48% 0.00 in 325.00 W/m2
08:53 51.8 °F 32.8 °F 29.84 in Calm   5.0 mph 48% 0.00 in 343.00 W/m2
08:58 52.0 °F 33.5 °F 29.84 in Calm     49% 0.00 in 359.00 W/m2
09:03 52.3 °F 33.7 °F 29.84 in Calm     49% 0.00 in 376.00 W/m2
09:08 52.6 °F 33.5 °F 29.84 in Calm     48% 0.00 in 392.00 W/m2
09:13 52.8 °F 34.2 °F 29.84 in Calm   3.0 mph 49% 0.00 in 406.00 W/m2
09:18 53.2 °F 34.0 °F 29.84 in Calm     48% 0.00 in 422.00 W/m2
09:23 53.4 °F 34.2 °F 29.84 in Calm     48% 0.00 in 434.00 W/m2
09:28 53.7 °F 34.5 °F 29.84 in Calm     48% 0.00 in 448.00 W/m2
09:33 54.1 °F 35.4 °F 29.84 in Calm     49% 0.00 in 464.00 W/m2
09:38 54.4 °F 35.1 °F 29.84 in Calm     48% 0.00 in 478.00 W/m2
09:43 54.7 °F 35.4 °F 29.85 in Calm     48% 0.00 in 492.00 W/m2
09:48 55.0 °F 34.6 °F 29.85 in NNE 3.0 mph 3.0 mph 46% 0.00 in 506.00 W/m2
09:53 55.4 °F 33.9 °F 29.84 in North 1.0 mph 4.0 mph 44% 0.00 in 522.00 W/m2
09:58 55.8 °F 33.7 °F 29.84 in North 1.0 mph 3.0 mph 43% 0.00 in 531.00 W/m2
10:03 56.2 °F 33.4 °F 29.84 in Calm   3.0 mph 42% 0.00 in 545.00 W/m2
10:08 56.6 °F 32.6 °F 29.84 in North 4.0 mph 4.0 mph 40% 0.00 in 557.00 W/m2
10:13 57.0 °F 32.9 °F 29.85 in North 1.0 mph 3.0 mph 40% 0.00 in 568.00 W/m2
10:18 57.4 °F 33.3 °F 29.85 in Calm     40% 0.00 in 578.00 W/m2
10:23 57.9 °F 32.5 °F 29.84 in Calm   1.0 mph 38% 0.00 in 591.00 W/m2
10:28 58.2 °F 33.4 °F 29.84 in Calm   3.0 mph 39% 0.00 in 605.00 W/m2
10:33 58.6 °F 32.4 °F 29.84 in Calm   4.0 mph 37% 0.00 in 617.00 W/m2
10:38 59.1 °F 32.9 °F 29.84 in WNW 2.0 mph 2.0 mph 37% 0.00 in 624.00 W/m2
10:43 59.5 °F 32.5 °F 29.84 in Calm     36% 0.00 in 636.00 W/m2
10:48 59.9 °F 33.6 °F 29.84 in WNW 1.0 mph 4.0 mph 37% 0.00 in 645.00 W/m2
10:53 60.3 °F 32.6 °F 29.84 in WNW 3.0 mph 4.0 mph 35% 0.00 in 656.00 W/m2
10:58 60.7 °F 30.7 °F 29.84 in Calm     32% 0.00 in 664.00 W/m2
11:03 61.1 °F 31.8 °F 29.84 in WNW 2.0 mph 3.0 mph 33% 0.00 in 673.00 W/m2
11:08 61.4 °F 32.1 °F 29.84 in WNW 1.0 mph 2.0 mph 33% 0.00 in 680.00 W/m2
11:13 61.7 °F 31.6 °F 29.84 in NW 3.0 mph 6.0 mph 32% 0.00 in 691.00 W/m2
11:18 62.1 °F 30.3 °F 29.84 in Calm   5.0 mph 30% 0.00 in 696.00 W/m2
11:23 62.3 °F 30.5 °F 29.84 in Calm   1.0 mph 30% 0.00 in 703.00 W/m2
11:28 62.6 °F 31.6 °F 29.83 in Calm   5.0 mph 31% 0.00 in 708.00 W/m2
11:33 63.0 °F 31.1 °F 29.83 in West 4.0 mph 6.0 mph 30% 0.00 in 715.00 W/m2
11:38 63.2 °F 31.3 °F 29.83 in Calm   4.0 mph 30% 0.00 in 724.00 W/m2
11:43 63.5 °F 30.7 °F 29.83 in WNW 1.0 mph 7.0 mph 29% 0.00 in 728.00 W/m2
11:48 63.6 °F 31.6 °F 29.83 in West 3.0 mph 7.0 mph 30% 0.00 in 733.00 W/m2
11:53 63.9 °F 31.0 °F 29.83 in SW 1.0 mph 4.0 mph 29% 0.00 in 737.00 W/m2
11:58 64.2 °F 32.2 °F 29.83 in Calm   2.0 mph 30% 0.00 in 740.00 W/m2
12:03 64.3 °F 30.5 °F 29.83 in West 6.0 mph 9.0 mph 28% 0.00 in 747.00 W/m2
12:08 64.5 °F 31.6 °F 29.83 in West 1.0 mph 11.0 mph 29% 0.00 in 749.00 W/m2
12:13 64.6 °F 30.8 °F 29.83 in Calm   5.0 mph 28% 0.00 in 754.00 W/m2
12:18 64.5 °F 30.7 °F 29.83 in Calm   7.0 mph 28% 0.00 in 756.00 W/m2
12:23 64.6 °F 29.9 °F 29.83 in Calm   3.0 mph 27% 0.00 in 754.00 W/m2
12:28 64.7 °F 31.7 °F 29.83 in West 3.0 mph 7.0 mph 29% 0.00 in 754.00 W/m2
12:33 64.7 °F 30.9 °F 29.83 in Calm   4.0 mph 28% 0.00 in 754.00 W/m2
12:38 64.9 °F 31.9 °F 29.83 in WNW 2.0 mph 8.0 mph 29% 0.00 in 752.00 W/m2
12:43 65.1 °F 32.1 °F 29.82 in West 4.0 mph 8.0 mph 29% 0.00 in 752.00 W/m2
12:48 65.2 °F 32.2 °F 29.82 in NW 6.0 mph 13.0 mph 29% 0.00 in 754.00 W/m2
12:54 65.4 °F 32.3 °F 29.82 in WNW 1.0 mph 9.0 mph 29% 0.00 in 754.00 W/m2
12:59 65.5 °F 33.3 °F 29.82 in Calm   9.0 mph 30% 0.00 in 752.00 W/m2
13:04 65.4 °F 33.2 °F 29.82 in WSW 7.0 mph 12.0 mph 30% 0.00 in 756.00 W/m2
13:09 65.4 °F 33.2 °F 29.82 in West 2.0 mph 8.0 mph 30% 0.00 in 752.00 W/m2
13:14 65.4 °F 33.2 °F 29.82 in Calm   9.0 mph 30% 0.00 in 754.00 W/m2
13:19 65.4 °F 33.2 °F 29.82 in Calm   7.0 mph 30% 0.00 in 751.00 W/m2
13:24 65.2 °F 33.0 °F 29.82 in Calm   8.0 mph 30% 0.00 in 747.00 W/m2
13:29 65.2 °F 33.0 °F 29.82 in NW 7.0 mph 8.0 mph 30% 0.00 in 745.00 W/m2
13:34 65.1 °F 32.9 °F 29.82 in Calm   9.0 mph 30% 0.00 in 740.00 W/m2
13:39 64.9 °F 31.9 °F 29.82 in WNW 4.0 mph 8.0 mph 29% 0.00 in 733.00 W/m2
13:44 64.9 °F 32.8 °F 29.82 in West 3.0 mph 8.0 mph 30% 0.00 in 729.00 W/m2
13:49 65.0 °F 32.8 °F 29.81 in WNW 5.0 mph 5.0 mph 30% 0.00 in 724.00 W/m2
13:54 65.3 °F 32.3 °F 29.81 in NW 4.0 mph 6.0 mph 29% 0.00 in 722.00 W/m2
13:59 65.4 °F 31.5 °F 29.81 in WNW 6.0 mph 8.0 mph 28% 0.00 in 714.00 W/m2
14:04 65.4 °F 31.5 °F 29.81 in WSW 1.0 mph 7.0 mph 28% 0.00 in 710.00 W/m2
14:09 65.4 °F 31.5 °F 29.81 in Calm   7.0 mph 28% 0.00 in 703.00 W/m2
14:14 65.3 °F 31.4 °F 29.81 in Calm   10.0 mph 28% 0.00 in 696.00 W/m2
14:19 65.3 °F 31.4 °F 29.81 in WNW 5.0 mph 5.0 mph 28% 0.00 in 687.00 W/m2
14:24 65.4 °F 30.6 °F 29.81 in West 5.0 mph 7.0 mph 27% 0.00 in 682.00 W/m2
14:29 65.7 °F 31.7 °F 29.81 in Calm   9.0 mph 28% 0.00 in 675.00 W/m2
14:34 65.8 °F 30.0 °F 29.81 in NW 2.0 mph 9.0 mph 26% 0.00 in 666.00 W/m2
14:39 65.7 °F 29.0 °F 29.81 in Calm   8.0 mph 25% 0.00 in 656.00 W/m2
14:44 65.6 °F 29.8 °F 29.81 in Calm   8.0 mph 26% 0.00 in 649.00 W/m2
14:49 65.7 °F 30.8 °F 29.80 in WSW 3.0 mph 10.0 mph 27% 0.00 in 636.00 W/m2
14:54 65.8 °F 30.0 °F 29.81 in Calm   6.0 mph 26% 0.00 in 628.00 W/m2
14:59 65.8 °F 30.9 °F 29.81 in West 1.0 mph 6.0 mph 27% 0.00 in 617.00 W/m2
15:04 65.6 °F 29.8 °F 29.81 in Calm   8.0 mph 26% 0.00 in 605.00 W/m2
15:09 65.4 °F 30.6 °F 29.80 in Calm   8.0 mph 27% 0.00 in 596.00 W/m2
15:14 65.4 °F 30.6 °F 29.80 in Calm   4.0 mph 27% 0.00 in 584.00 W/m2
15:19 65.6 °F 30.8 °F 29.80 in West 2.0 mph 7.0 mph 27% 0.00 in 571.00 W/m2
15:24 65.7 °F 30.8 °F 29.80 in Calm   4.0 mph 27% 0.00 in 559.00 W/m2
15:29 65.8 °F 30.9 °F 29.80 in Calm   9.0 mph 27% 0.00 in 548.00 W/m2
15:34 65.7 °F 30.8 °F 29.80 in WSW 2.0 mph 7.0 mph 27% 0.00 in 536.00 W/m2
15:39 65.7 °F 29.9 °F 29.80 in Calm   5.0 mph 26% 0.00 in 524.00 W/m2
15:44 65.6 °F 29.8 °F 29.79 in West 4.0 mph 5.0 mph 26% 0.00 in 510.00 W/m2
15:49 65.4 °F 29.6 °F 29.80 in West 7.0 mph 8.0 mph 26% 0.00 in 496.00 W/m2
15:54 65.3 °F 30.5 °F 29.80 in West 4.0 mph 9.0 mph 27% 0.00 in 483.00 W/m2
15:59 65.2 °F 30.4 °F 29.80 in Calm   7.0 mph 27% 0.00 in 469.00 W/m2
16:04 65.2 °F 29.5 °F 29.80 in Calm   11.0 mph 26% 0.00 in 457.00 W/m2
16:05 65.2 °F 29.5 °F 29.80 in Calm   11.0 mph 26% 0.00 in 457.00 W/m2
16:10 65.2 °F 28.5 °F 29.80 in WNW 1.0 mph 8.0 mph 25% 0.00 in 441.00 W/m2
16:15 65.0 °F 29.3 °F 29.80 in Calm   7.0 mph 26% 0.00 in 429.00 W/m2
16:20 64.9 °F 27.3 °F 29.80 in West 2.0 mph 6.0 mph 24% 0.00 in 413.00 W/m2
16:25 64.9 °F 28.3 °F 29.80 in Calm   8.0 mph 25% 0.00 in 397.00 W/m2
16:30 64.8 °F 28.2 °F 29.80 in WNW 3.0 mph 7.0 mph 25% 0.00 in 380.00 W/m2
16:35 64.8 °F 28.2 °F 29.80 in Calm   6.0 mph 25% 0.00 in 369.00 W/m2
16:40 64.7 °F 27.1 °F 29.80 in Calm   7.0 mph 24% 0.00 in 353.00 W/m2
16:45 64.7 °F 28.1 °F 29.80 in Calm   7.0 mph 25% 0.00 in 338.00 W/m2
16:50 64.6 °F 29.0 °F 29.80 in Calm   7.0 mph 26% 0.00 in 323.00 W/m2
16:55 64.4 °F 26.9 °F 29.80 in Calm   4.0 mph 24% 0.00 in 306.00 W/m2
17:00 64.3 °F 27.8 °F 29.80 in Calm   8.0 mph 25% 0.00 in 288.00 W/m2
17:05 64.2 °F 27.7 °F 29.80 in Calm   3.0 mph 25% 0.00 in 269.00 W/m2
17:10 64.0 °F 28.5 °F 29.80 in Calm   7.0 mph 26% 0.00 in 260.00 W/m2
17:15 64.0 °F 27.5 °F 29.80 in SW 1.0 mph 6.0 mph 25% 0.00 in 243.00 W/m2
17:20 64.0 °F 26.5 °F 29.80 in Calm   6.0 mph 24% 0.00 in 229.00 W/m2
17:25 63.8 °F 27.3 °F 29.80 in Calm     25% 0.00 in 211.00 W/m2
17:30 63.7 °F 28.2 °F 29.80 in Calm   2.0 mph 26% 0.00 in 190.00 W/m2
17:35 63.5 °F 29.0 °F 29.80 in Calm   8.0 mph 27% 0.00 in 169.00 W/m2
17:40 63.2 °F 28.7 °F 29.80 in Calm   6.0 mph 27% 0.00 in 148.00 W/m2
17:45 63.0 °F 29.4 °F 29.80 in Calm   5.0 mph 28% 0.00 in 127.00 W/m2
17:50 62.7 °F 29.1 °F 29.80 in Calm   3.0 mph 28% 0.00 in 105.00 W/m2
17:55 62.5 °F 29.8 °F 29.80 in Calm   2.0 mph 29% 0.00 in 88.00 W/m2
18:00 62.3 °F 29.7 °F 29.80 in Calm   2.0 mph 29% 0.00 in 74.00 W/m2
18:06 62.0 °F 29.4 °F 29.81 in Calm   2.0 mph 29% 0.00 in 58.00 W/m2
18:11 61.8 °F 27.5 °F 29.81 in Calm   6.0 mph 27% 0.00 in 44.00 W/m2
18:15 61.6 °F 29.1 °F 29.81 in Calm   4.0 mph 29% 0.00 in 33.00 W/m2
18:21 61.4 °F 28.9 °F 29.81 in Calm   3.0 mph 29% 0.00 in 25.00 W/m2
18:26 61.2 °F 28.7 °F 29.81 in Calm     29% 0.00 in 18.00 W/m2
18:31 61.1 °F 30.3 °F 29.81 in Calm   2.0 mph 31% 0.00 in 14.00 W/m2
18:36 60.9 °F 30.1 °F 29.81 in Calm     31% 0.00 in 11.00 W/m2
18:41 60.7 °F 29.9 °F 29.81 in Calm     31% 0.00 in 9.00 W/m2
18:46 60.3 °F 29.6 °F 29.81 in Calm     31% 0.00 in 7.00 W/m2
18:51 59.5 °F 30.4 °F 29.81 in Calm     33% 0.00 in 5.00 W/m2
18:56 58.7 °F 29.7 °F 29.81 in Calm     33% 0.00 in 0.00 W/m2
19:01 58.1 °F 29.2 °F 29.81 in Calm     33% 0.00 in 0.00 W/m2
19:06 57.5 °F 29.4 °F 29.81 in Calm     34% 0.00 in 0.00 W/m2
19:11 56.9 °F 29.5 °F 29.81 in Calm     35% 0.00 in 0.00 W/m2
19:16 56.4 °F 29.1 °F 29.81 in Calm     35% 0.00 in 0.00 W/m2
19:21 56.2 °F 28.9 °F 29.81 in Calm     35% 0.00 in 0.00 W/m2
19:26 55.8 °F 28.6 °F 29.81 in Calm     35% 0.00 in 0.00 W/m2
19:31 55.5 °F 28.3 °F 29.81 in Calm     35% 0.00 in 0.00 W/m2
19:36 55.3 °F 28.8 °F 29.80 in Calm     36% 0.00 in 0.00 W/m2
19:41 55.0 °F 28.6 °F 29.80 in Calm     36% 0.00 in 0.00 W/m2
19:46 54.8 °F 28.4 °F 29.80 in Calm     36% 0.00 in 0.00 W/m2
19:51 54.5 °F 28.1 °F 29.80 in Calm     36% 0.00 in 0.00 W/m2
19:56 54.3 °F 27.9 °F 29.80 in Calm     36% 0.00 in 0.00 W/m2
20:01 54.1 °F 28.4 °F 29.81 in Calm     37% 0.00 in 0.00 W/m2
20:06 53.9 °F 27.6 °F 29.81 in Calm     36% 0.00 in 0.00 W/m2
20:20 53.7 °F 28.1 °F 29.81 in Calm     37% 0.00 in 0.00 W/m2
20:22 53.6 °F 28.0 °F 29.81 in Calm     37% 0.00 in 0.00 W/m2
20:26 53.6 °F 28.0 °F 29.80 in Calm     37% 0.00 in 0.00 W/m2
20:28 53.5 °F 27.9 °F 29.80 in Calm     37% 0.00 in 0.00 W/m2
20:30 53.4 °F 27.1 °F 29.80 in Calm     36% 0.00 in 0.00 W/m2
20:35 53.4 °F 27.1 °F 29.80 in Calm     36% 0.00 in 0.00 W/m2
20:40 53.3 °F 27.7 °F 29.80 in Calm   2.0 mph 37% 0.00 in 0.00 W/m2
20:45 53.3 °F 27.0 °F 29.80 in Calm   4.0 mph 36% 0.00 in 0.00 W/m2
20:50 53.2 °F 27.6 °F 29.80 in Calm   5.0 mph 37% 0.00 in 0.00 W/m2
20:55 53.1 °F 27.5 °F 29.80 in Calm   4.0 mph 37% 0.00 in 0.00 W/m2
21:00 53.1 °F 27.5 °F 29.80 in SE 2.0 mph 5.0 mph 37% 0.00 in 0.00 W/m2
21:05 53.0 °F 27.4 °F 29.80 in ESE 2.0 mph 7.0 mph 37% 0.00 in 0.00 W/m2
21:10 53.0 °F 28.1 °F 29.80 in ESE 1.0 mph 8.0 mph 38% 0.00 in 0.00 W/m2
21:15 52.9 °F 28.0 °F 29.80 in Calm   6.0 mph 38% 0.00 in 0.00 W/m2
21:20 52.8 °F 27.9 °F 29.81 in East 1.0 mph 8.0 mph 38% 0.00 in 0.00 W/m2
21:25 52.8 °F 27.9 °F 29.80 in East 1.0 mph 7.0 mph 38% 0.00 in 0.00 W/m2
21:30 52.8 °F 27.9 °F 29.80 in East 5.0 mph 8.0 mph 38% 0.00 in 0.00 W/m2
21:35 52.8 °F 28.5 °F 29.80 in East 5.0 mph 8.0 mph 39% 0.00 in 0.00 W/m2
21:36 52.8 °F 28.5 °F 29.80 in Calm   5.0 mph 39% 0.00 in 0.00 W/m2
21:41 52.7 °F 28.5 °F 29.80 in Calm   2.0 mph 39% 0.00 in 0.00 W/m2
21:46 52.7 °F 28.5 °F 29.80 in Calm   5.0 mph 39% 0.00 in 0.00 W/m2
21:51 52.7 °F 28.5 °F 29.80 in ESE 7.0 mph 9.0 mph 39% 0.00 in 0.00 W/m2
21:56 52.7 °F 28.5 °F 29.80 in ESE 1.0 mph 1.0 mph 39% 0.00 in 0.00 W/m2
22:01 52.6 °F 28.4 °F 29.80 in ESE 1.0 mph 7.0 mph 39% 0.00 in 0.00 W/m2
22:06 52.6 °F 28.4 °F 29.80 in ESE 2.0 mph 8.0 mph 39% 0.00 in 0.00 W/m2
22:11 52.5 °F 28.3 °F 29.80 in Calm   6.0 mph 39% 0.00 in 0.00 W/m2
22:16 52.5 °F 28.3 °F 29.80 in Calm   8.0 mph 39% 0.00 in 0.00 W/m2
22:21 52.4 °F 28.2 °F 29.80 in East 6.0 mph 8.0 mph 39% 0.00 in 0.00 W/m2
22:26 52.3 °F 28.1 °F 29.80 in Calm   6.0 mph 39% 0.00 in 0.00 W/m2
22:31 52.3 °F 28.1 °F 29.80 in Calm   7.0 mph 39% 0.00 in 0.00 W/m2
22:36 52.3 °F 28.1 °F 29.80 in Calm   7.0 mph 39% 0.00 in 0.00 W/m2
22:41 52.3 °F 28.7 °F 29.80 in ESE 8.0 mph 8.0 mph 40% 0.00 in 0.00 W/m2
22:46 52.2 °F 28.6 °F 29.79 in Calm   8.0 mph 40% 0.00 in 0.00 W/m2
22:51 52.2 °F 28.0 °F 29.79 in Calm   7.0 mph 39% 0.00 in 0.00 W/m2
22:56 52.1 °F 28.5 °F 29.79 in Calm   8.0 mph 40% 0.00 in 0.00 W/m2
23:01 52.1 °F 28.5 °F 29.80 in Calm   7.0 mph 40% 0.00 in 0.00 W/m2
23:06 52.1 °F 28.5 °F 29.79 in ESE 4.0 mph 7.0 mph 40% 0.00 in 0.00 W/m2
23:11 52.0 °F 27.8 °F 29.79 in Calm   4.0 mph 39% 0.00 in 0.00 W/m2
23:18 51.8 °F 27.6 °F 29.79 in East 2.0 mph 8.0 mph 39% 0.00 in 0.00 W/m2
23:23 51.7 °F 28.2 °F 29.79 in ESE 4.0 mph 11.0 mph 40% 0.00 in 0.00 W/m2
23:28 51.6 °F 28.1 °F 29.79 in Calm   7.0 mph 40% 0.00 in 0.00 W/m2
23:33 51.5 °F 28.0 °F 29.79 in East 4.0 mph 7.0 mph 40% 0.00 in 0.00 W/m2
23:38 51.4 °F 27.9 °F 29.79 in East 1.0 mph 7.0 mph 40% 0.00 in 0.00 W/m2
23:43 51.4 °F 27.9 °F 29.79 in East 1.0 mph 8.0 mph 40% 0.00 in 0.00 W/m2
23:48 51.3 °F 27.8 °F 29.78 in East 7.0 mph 7.0 mph 40% 0.00 in 0.00 W/m2
23:53 51.2 °F 27.7 °F 29.78 in East 6.0 mph 9.0 mph 40% 0.00 in 0.00 W/m2
23:58 51.2 °F 27.7 °F 29.78 in Calm   11.0 mph 40% 0.00 in 0.00 W/m2
Foresthill Weather
 WU-history PHP script courtesy of   Juneau County Weather.
powered by Cumulus v1.9.3 (1059)
Ambient Weather VWS v14.00
Top Contact Website Map Copyright © 2007 - 2018 Foresthillweather.com Never base important decisions on this or any weather information obtained from the Internet